Location: Coupvray
(48.8929°N, 2.7967°E)
Time: 04:42:36
(UTC+00:00)

Cosmos 2082 Rocket - Pass Details

Date: 14 July 2020
Orbit: 833 x 853 km, 71.0° (Epoch: 06 August)

Event Time Altitude Azimuth Distance (km) Brightness Sun altitude
Exits shadow 00:40:47 - 130° (SE) 2,716 4.6 -18.7°
Reaches altitude 10° 00:42:05 10° 119° (ESE) 2,481 4.5 -18.7°
Maximum altitude 00:44:20 12° 95° (E) 2,310 4.5 -18.6°
Drops below altitude 10° 00:46:36 10° 72° (ENE) 2,487 5.0 -18.5°
Sets 00:50:36 0° 44° (NE) 3,427 6.4 -18.4°
